Ogden Hill AFB, UT

3:52 PM MDT on March 25, 2017 (GMT -0600)
Hill Air Force Base

Weather History for KHIF - November, 2012

Change the Weather History Date:

Wednesday, November 7, 2012

  Actual Average Record
Temperature  
Mean Temperature 54 °F -  
Max Temperature 65 °F 46 °F 66 °F (1999)
Min Temperature 42 °F 32 °F 23 °F (2000)
Degree Days  
Heating Degree Days 12    
Growing Degree Days 4 (Base 50)    
Moisture  
Dew Point 29 °F    
Average Humidity 41    
Maximum Humidity 58    
Minimum Humidity 26    
Precipitation  
Precipitation 0.00 in - - ()
Sea Level Pressure  
Sea Level Pressure 29.94 in    
Wind  
Wind Speed 12 mph (SE)    
Max Wind Speed 17 mph    
Max Gust Speed -    
Visibility 10 miles    
Events      
Averages and records for this station are not official NWS values.
T = Trace of Precipitation, MM = Missing Value Source: NWS Daily Summary

Daily Weather History Graph

Daily Weather History Graph

Search for Another Location

Airport or City:

Trip Planner

Search our weather history database for the weather conditions in past years. The results will help you decide how hot, cold, wet, or windy it might be!

Date:

Astronomy

Nov. 07, 2012 Rise Set
Actual Time 7:06 AM MST 5:15 PM MST
Civil Twilight 6:37 AM MST 5:44 PM MST
Nautical Twilight 6:04 AM MST 6:17 PM MST
Astronomical Twilight 5:32 AM MST 6:50 PM MST
Moon 12:00 AM MST (11/7) 1:30 PM MST (11/7)
Length of Visible Light 11h 07m
Length of Day
10h 09m
Last Quarter, 42% of the Moon is Illuminated
Nov 7
Last Quarter
Nov 13
New
Nov 20
First Quarter
Nov 28
Full
Dec 6
Last Quarter

Hourly Weather History & Observations

Time (MST) Temp. Windchill Dew Point Humidity Pressure Visibility Wind Dir Wind Speed Gust Speed Precip Events Conditions
12:55 AM 47.5 °F - 31.5 °F 54% 30.07 in 10.0 mi ESE 12.7 mph - N/A   Clear
1:55 AM 46.8 °F - 30.6 °F 53% 30.04 in 10.0 mi ESE 16.1 mph - N/A   Clear
2:55 AM 46.4 °F 39.5 °F 30.4 °F 54% 30.04 in 10.0 mi ESE 17.3 mph - N/A   Clear
3:55 AM 45.9 °F 39.1 °F 29.7 °F 53% 30.02 in 10.0 mi ESE 16.1 mph - N/A   Clear
4:55 AM 44.8 °F 38.7 °F 28.9 °F 54% 30.03 in 10.0 mi ESE 12.7 mph - N/A   Clear
5:55 AM 42.4 °F 34.7 °F 28.6 °F 58% 30.05 in 10.0 mi ESE 16.1 mph - N/A   Clear
6:55 AM 43.9 °F 36.5 °F 28.0 °F 54% 30.06 in 10.0 mi ESE 16.1 mph - N/A   Clear
7:55 AM 43.7 °F 36.9 °F 27.9 °F 54% 30.07 in 10.0 mi ESE 13.8 mph - N/A   Clear
8:55 AM 47.1 °F - 28.0 °F 48% 30.06 in 10.0 mi East 17.3 mph - N/A   Clear
9:55 AM 51.8 °F - 28.8 °F 41% 30.02 in 10.0 mi ESE 11.5 mph - N/A   Clear
10:55 AM 56.3 °F - 30.2 °F 37% 30.01 in 10.0 mi East 9.2 mph - N/A   Clear
11:55 AM 62.4 °F - 30.2 °F 30% 29.94 in 10.0 mi SSE 8.1 mph - N/A   Clear
12:55 PM 64.2 °F - 29.3 °F 27% 29.91 in 10.0 mi South 10.4 mph - N/A   Clear
1:55 PM 64.8 °F - 30.2 °F 27% 29.89 in 10.0 mi SSW 8.1 mph - N/A   Clear
2:55 PM 65.5 °F - 30.0 °F 26% 29.87 in 10.0 mi South 5.8 mph - N/A   Clear
3:55 PM 65.5 °F - 31.3 °F 28% 29.85 in 10.0 mi South 6.9 mph - N/A   Clear
4:55 PM 62.8 °F - 32.4 °F 32% 29.85 in 10.0 mi SE 4.6 mph - N/A   Clear
5:55 PM 60.3 °F - 30.6 °F 33% 29.85 in 10.0 mi Calm Calm - N/A   Clear
6:55 PM 55.8 °F - 29.1 °F 36% 29.86 in 10.0 mi East 10.4 mph - N/A   Clear
7:55 PM 56.5 °F - 28.2 °F 34% 29.84 in 10.0 mi ESE 11.5 mph - N/A   Clear
8:55 PM 55.4 °F - 28.8 °F 36% 29.82 in 10.0 mi ESE 8.1 mph - N/A   Clear
9:55 PM 53.8 °F - 28.2 °F 37% 29.80 in 10.0 mi ESE 9.2 mph - N/A   Clear
10:55 PM 52.3 °F - 28.0 °F 39% 29.78 in 10.0 mi ESE 12.7 mph - N/A   Clear
11:55 PM 51.6 °F - 27.3 °F 39% 29.73 in 10.0 mi ESE 11.5 mph - N/A   Clear